Flag for France Weather past 2 weeks in Strasbourg, France

Now
57 °F

Fog.


Feels Like: 57 °F
Forecast: 60 / 72 °F
Wind: 2 mph from North

Location: Strasbourg Airport

Current Time: Aug 28, 2014 at 8:01:43 AM

Latest Report: Aug 28, 2014 at 7:30 AM


Visibility: 0 mi

Pressure: 30.07 "Hg

Humidity: 100%

Dew point: 57 °F

Location of StrasbourgLocation

Historic Weather in Strasbourg — Graph

°F

Strasbourg temperature yesterday

Maximum temperature yesterday: 68 °F (at 1:30 PM)
Minimum temperature yesterday: 59 °F (at 12:30 AM)
Average temperature yesterday: 62 °F

Past Weeks' High & Low Weather Summary

 TemperatureHumidityPressure
High73 °F (Aug 17, 2:30 PM)100% (Aug 15, 8:00 AM)30.18 "Hg (Aug 15, 8:00 AM)
Low46 °F (Aug 20, 5:30 AM)33% (Aug 22, 2:00 PM)29.65 "Hg (Aug 13, 1:30 PM)
Average60 °F77%29.97 "Hg
* Reported Aug 13 6:00 AM — Aug 28 6:30 AM, Strasbourg, Weather by CustomWeather, © 2014

Note: Actual official high and low records may vary slightly from our data, if they occured in-between our weather recording intervals... More about our weather records

Advertising

Strasbourg weather history for previous 24 hours

 ConditionsComfort  
Time TempWeatherWind HumidityBarometerVisibility
6:30 AM
Aug 28
57 °FFog.1 mph94%30.04 "Hg0 mi
6:00 AM55 °FFog.1 mph94%30.04 "Hg0 mi
5:30 AM55 °FFog.1 mph100%30.04 "Hg0 mi
5:00 AM57 °FFog.1 mph94%30.04 "Hg0 mi
4:30 AM57 °FFog.2 mph100%30.04 "Hg0 mi
4:00 AM59 °FFog.3 mph94%30.04 "Hg0 mi
3:30 AM59 °FFog.2 mph100%30.04 "Hg0 mi
3:00 AM59 °FFog.3 mph94%30.04 "Hg0 mi
2:30 AM59 °FLow clouds.No wind94%30.04 "HgN/A
2:00 AM59 °FClear.2 mph94%30.04 "HgN/A
1:30 AM59 °FClear.No wind100%30.07 "HgN/A
1:00 AM59 °FClear.No wind100%30.04 "HgN/A
12:30 AM59 °FClear.No wind100%30.04 "HgN/A
12:00 AM59 °FClear.2 mph100%30.07 "HgN/A
11:30 PM
Aug 27
59 °FClear.1 mph94%30.04 "HgN/A
11:00 PM61 °FClear.1 mph94%30.04 "HgN/A
10:30 PM61 °FClear.3 mph94%30.04 "HgN/A
10:00 PM61 °FClear.1 mph94%30.04 "HgN/A
9:30 PM61 °FClear.2 mph94%30.04 "HgN/A
9:00 PM63 °FClear.1 mph88%30.04 "HgN/A
8:30 PM63 °FClear.1 mph88%30.04 "Hg4 mi
8:00 PM64 °FClear.1 mph83%30.04 "HgN/A
7:30 PM64 °FClear.2 mph83%30.04 "HgN/A
7:00 PM64 °FClear.No wind83%30.04 "HgN/A
6:30 PM64 °FClear.3 mph83%30.04 "HgN/A
6:00 PM64 °FPartly sunny.6 mph83%30.04 "HgN/A
5:00 PM64 °FPartly sunny.5 mph88%30.04 "HgN/A
4:30 PM64 °FOvercast.6 mph83%30.04 "HgN/A
4:00 PM66 °FBroken clouds.8 mph83%30.04 "HgN/A
3:30 PM66 °FPartly sunny.7 mph78%30.01 "HgN/A
3:00 PM68 °FBroken clouds.6 mph73%30.01 "HgN/A
2:30 PM66 °FPartly sunny.3 mph78%30.01 "HgN/A
2:00 PM66 °FBroken clouds.6 mph78%30.01 "HgN/A
1:30 PM68 °FPartly sunny.7 mph83%30.01 "HgN/A
1:00 PM64 °FBroken clouds.7 mph83%30.01 "HgN/A
12:30 PM64 °FBroken clouds.5 mph88%30.01 "HgN/A
12:00 PM64 °FBroken clouds.3 mph88%30.01 "HgN/A
11:30 AM63 °FLight rain. Broken clouds.3 mph94%30.01 "HgN/A
11:00 AM63 °FBroken clouds.2 mph94%30.01 "HgN/A
10:30 AM61 °FLight rain. Partly sunny.3 mph94%29.98 "Hg6 mi
10:00 AM61 °FLight rain. Partly sunny.3 mph94%29.98 "HgN/A
9:30 AM61 °FLight rain. Fog.2 mph94%29.98 "Hg2 mi
9:00 AM61 °FLight rain. Partly sunny.2 mph94%29.95 "Hg6 mi
8:30 AM61 °FLight rain. Cloudy.3 mph94%29.95 "Hg4 mi
8:00 AM61 °FRain. Partly sunny.1 mph94%29.92 "HgN/A
Weather by CustomWeather, © 2014

See weather overviewHow to use our weather pages